WetterOnline ( https://www.wetteronline.de )

Wetter aktuell Wustrau

Aktuelles Wetter: Kyritz (42m)

6-stündlich | Neueste Meldungen
Ortszeit Temperatur Wetter
Mi, 28.07. 2:00 17.3° C wolkig
Di, 27.07. 20:00 25.3° C wolkig
Di, 27.07. 14:00 24.6° C leicht bewölkt
Di, 27.07. 8:00 20.1° C fast wolkenlos
Di, 27.07. 2:00 17.6° C bedeckt
Mo, 26.07. 20:00 22.6° C wolkig
Mo, 26.07. 14:00 28.5° C bewölkt
Mo, 26.07. 8:00 19.3° C bewölkt
Ortszeit Temperatur Wetter
Mi, 28.07. 7:00 16.8° C Sprühregen
Mi, 28.07. 6:50 16.8° C Sprühregen
Mi, 28.07. 6:40 16.8° C wolkig
Mi, 28.07. 6:30 16.7° C bewölkt
Mi, 28.07. 6:20 16.7° C bewölkt
Mi, 28.07. 6:10 16.6° C leichter Regen
Mi, 28.07. 6:00 16.3° C bedeckt
Mi, 28.07. 5:30 16.2° C bewölkt
Mi, 28.07. 5:00 16.2° C bedeckt
Mi, 28.07. 4:30 16.5° C bedeckt
Mi, 28.07. 4:00 16.4° C bedeckt
Ortszeit Relative Feuchte Sichtweite
Mi, 28.07. 2:00 96% 17 km
Di, 27.07. 20:00 51% 55 km
Di, 27.07. 14:00 56% 50 km
Di, 27.07. 8:00 77% 45 km
Di, 27.07. 2:00 85% 55 km
Mo, 26.07. 20:00 67% 50 km
Mo, 26.07. 14:00 55% 27 km
Mo, 26.07. 8:00 93% 12 km
Ortszeit Relative Feuchte Sichtweite
Mi, 28.07. 7:00 93% 25 km
Mi, 28.07. 6:50 93% -
Mi, 28.07. 6:40 92% -
Mi, 28.07. 6:30 93% 24 km
Mi, 28.07. 6:20 93% -
Mi, 28.07. 6:10 94% -
Mi, 28.07. 6:00 97% 12 km
Mi, 28.07. 5:30 97% 11 km
Mi, 28.07. 5:00 97% 14 km
Mi, 28.07. 4:30 97% 14 km
Mi, 28.07. 4:00 97% 13 km
Ortszeit Niederschlagsmenge Niederschlagsart
Mi, 28.07. 2:00 4 l/m2 in 6 Std. Regen
Di, 27.07. 20:00 0.0 l/m2 in 12 Std. -
Di, 27.07. 14:00 0.0 l/m2 in 6 Std. -
Di, 27.07. 8:00 0.1 l/m2 in 12 Std. -
Di, 27.07. 2:00 0.1 l/m2 in 6 Std. Regen
Mo, 26.07. 20:00 0.0 l/m2 in 12 Std. -
Mo, 26.07. 14:00 0.0 l/m2 in 6 Std. -
Mo, 26.07. 8:00 0.6 l/m2 in 12 Std. -
Ortszeit Niederschlagsmenge Niederschlagsart
Mi, 28.07. 7:00 0.1 l/m2 in 1 Std. Regen
Mi, 28.07. 6:50 keine Meldung -
Mi, 28.07. 6:40 keine Meldung -
Mi, 28.07. 6:30 0.1 l/m2 in 1 Std. Schneeregen
Mi, 28.07. 6:20 keine Meldung -
Mi, 28.07. 6:10 keine Meldung -
Mi, 28.07. 6:00 0.0 l/m2 in 1 Std. -
Mi, 28.07. 5:30 0.0 l/m2 in 1 Std. -
Mi, 28.07. 5:00 0.0 l/m2 in 1 Std. -
Mi, 28.07. 4:30 0.0 l/m2 in 1 Std. -
Mi, 28.07. 4:00 0.0 l/m2 in 1 Std. -
Ortszeit Stärke Spitze Richtung
km/h Bft. km/h Grad Sektor
Mi, 28.07. 2:00 4 1 40 190° S
Di, 27.07. 20:00 6 1 31 230° SW
Di, 27.07. 14:00 13 3 31 240° SW
Di, 27.07. 8:00 9 2 15 240° SW
Di, 27.07. 2:00 7 2 43 190° S
Mo, 26.07. 20:00 22 4 32 310° NW
Mo, 26.07. 14:00 7 2 25 80° O
Mo, 26.07. 8:00 6 1 17 120° SO
Ortszeit Stärke Spitze Richtung
km/h Bft. km/h Grad Sektor
Mi, 28.07. 7:00 9 2 17 210° SW
Mi, 28.07. 6:50 9 2 - 210° SW
Mi, 28.07. 6:40 11 2 - 220° SW
Mi, 28.07. 6:30 11 2 18 220° SW
Mi, 28.07. 6:20 11 2 - 220° SW
Mi, 28.07. 6:10 11 2 - 230° SW
Mi, 28.07. 6:00 6 1 9 230° SW
Mi, 28.07. 5:30 6 1 9 170° S
Mi, 28.07. 5:00 4 1 7 200° S
Mi, 28.07. 4:30 0 0 4 - -
Mi, 28.07. 4:00 4 1 11 310° NW
Ortszeit Untergrenze Bedeckung Gattung
total tief tief mittel hoch
Mi, 28.07. 2:00 2100 m 8/8 3/8 - - -
Di, 27.07. 20:00 8700 m 7/8 0/8 - - -
Di, 27.07. 14:00 1500 m 5/8 3/8 - - -
Di, 27.07. 8:00 7200 m 2/8 0/8 - - -
Di, 27.07. 2:00 4500 m 8/8 8/8 - - -
Mo, 26.07. 20:00 1500 m 8/8 3/8 - - -
Mo, 26.07. 14:00 1230 m 7/8 7/8 - - -
Mo, 26.07. 8:00 3600 m 7/8 8/8 - - -
Ortszeit Bedeckungsgrad in Achtel und Wolkenuntergrenze
Mi, 28.07. 7:00 1(1500m) 8(3000m)
Mi, 28.07. 6:50 1(1500m) 8(3000m)
Mi, 28.07. 6:40 2(1500m) 8(3000m)
Mi, 28.07. 6:30 7(2700m) 8(3900m) 8(5100m)
Mi, 28.07. 6:20 7(2700m) 8(3900m) 8(5100m)
Mi, 28.07. 6:10 7(2700m) 8(3600m) 8(5100m)
Mi, 28.07. 6:00 8(3300m) 8(5100m) 8(5100m)
Mi, 28.07. 5:30 5(2700m) 7(3600m) 8(4200m)
Mi, 28.07. 5:00 8(3000m) 8(3900m) 8(5100m)
Mi, 28.07. 4:30 8(3000m) 8(4200m) 8(5100m)
Mi, 28.07. 4:00 8(2700m) 8(3300m)
Ortszeit Luftdruck NN (hPa) Tendenz (hPa in 3 Std.)
Mi, 28.07. 2:00 1011 - 0,9
Di, 27.07. 20:00 1011 - 0,3
Di, 27.07. 14:00 1012 0,0
Di, 27.07. 8:00 1012 + 0,7
Di, 27.07. 2:00 1011 - 0,5
Mo, 26.07. 20:00 1010 + 0,6
Mo, 26.07. 14:00 1010 - 0,6
Mo, 26.07. 8:00 1010 + 0,3
Ortszeit Luftdruck NN (hPa) Tendenz (hPa in 3 Std.)
Mi, 28.07. 7:00 1011 + 0,3
Mi, 28.07. 6:50 1011 keine Meldung
Mi, 28.07. 6:40 1011 keine Meldung
Mi, 28.07. 6:30 1011 - 0,1
Mi, 28.07. 6:20 1011 keine Meldung
Mi, 28.07. 6:10 1011 keine Meldung
Mi, 28.07. 6:00 1011 - 0,3
Mi, 28.07. 5:30 1010 - 0,6
Mi, 28.07. 5:00 1010 - 0,7
Mi, 28.07. 4:30 1011 - 0,9
Mi, 28.07. 4:00 1011 - 1,1
Ortszeit Schneehöhe (cm)
Mi, 28.07. 2:00 -
Di, 27.07. 20:00 -
Di, 27.07. 14:00 -
Di, 27.07. 8:00 -
Di, 27.07. 2:00 -
Mo, 26.07. 20:00 -
Mo, 26.07. 14:00 -
Mo, 26.07. 8:00 -
Ortszeit Schneehöhe (cm)
Mi, 28.07. 7:00 -
Mi, 28.07. 6:50 -
Mi, 28.07. 6:40 -
Mi, 28.07. 6:30 -
Mi, 28.07. 6:20 -
Mi, 28.07. 6:10 -
Mi, 28.07. 6:00 -
Mi, 28.07. 5:30 -
Mi, 28.07. 5:00 -
Mi, 28.07. 4:30 -
Mi, 28.07. 4:00 -
Link zu dieser Seite / Seite empfehlen

Das Wetter in ...